RH
52 51 55 54 49 45 44 44 38 34 38 43 47 50 51 52 55 63 68 68 75 81 79 73 69 62 50 38 36 41 45 45 44 41 39 36 34 38 39 34 33 41 55 65 68 66 68 70 71 78 85 90 91 89 88 90 91 92 93 94 94 93 87 81 80 76 76 80 83 84 84 86 88 89 89 86 85 84 81 78 77 77 75 74 73 71
57 57 59 58 56 52 49 48 42 37 36 35 39 46 47 47 51 58 64 65 69 76 79 81 79 73 62 50 44 43 44 46 45 43 44 42 37 40 46 43 38 43 51 60 68 69 69 70 68 70 75 83 88 88 88 89 91 93 95 95 93 92 90 88 87 82 80 82 83 85 87 89 93 93 91 90 89 88 84 82 84 83 76 73 72 70
64 64 61 58 56 55 52 48 44 41 38 35 33 38 45 45 46 53 61 62 61 65 70 74 78 77 70 62 55 50 47 47 46 45 46 46 42 42 49 51 47 47 49 50 58 67 72 73 70 70 73 78 82 84 85 87 89 92 95 95 91 91 92 92 92 90 88 86 86 89 91 91 94 96 95 95 94 91 85 80 80 79 74 72 72 71
77 75 69 63 58 54 52 49 46 42 37 33 30 32 37 40 42 50 61 65 62 64 66 65 68 69 69 66 59 52 48 45 46 47 48 47 44 42 47 52 49 47 46 45 48 57 68 73 72 72 76 84 88 85 84 85 88 92 96 96 94 93 92 92 94 94 93 92 92 93 95 95 96 96 95 96 93 85 78 74 73 74 73 73 73 73
84 81 76 71 65 58 56 52 47 42 38 35 36 35 33 36 41 48 57 60 58 59 59 59 63 61 60 62 57 51 47 42 43 45 47 47 45 43 42 46 48 44 43 46 48 51 57 65 70 69 71 82 92 93 91 90 91 93 96 99 98 96 95 96 97 95 95 96 96 95 97 98 96 94 92 91 86 76 70 70 72 73 74 74 74 75
82 77 74 74 72 68 65 57 49 47 44 40 40 39 36 36 42 47 47 49 55 56 48 51 63 58 48 51 53 50 48 43 41 42 43 46 47 45 42 43 45 41 41 46 48 49 52 58 64 69 70 75 84 92 94 96 95 95 96 97 97 97 98 99 98 98 97 97 97 97 98 98 96 93 88 85 82 73 69 72 74 74 74 75 76 76
78 71 68 67 66 69 69 61 51 50 52 48 45 46 48 46 46 45 42 48 56 54 50 55 64 58 48 49 51 51 50 45 41 41 41 43 47 48 45 44 44 41 41 43 46 50 52 52 55 64 71 72 77 84 88 92 95 96 97 97 96 96 96 97 97 98 98 97 98 97 96 93 90 88 85 82 79 74 72 74 75 75 74 75 75 75
80 74 66 61 61 63 63 59 53 55 58 57 53 54 55 54 54 52 50 53 50 43 51 61 66 67 59 52 53 54 53 49 43 41 39 40 44 46 46 45 45 45 43 43 46 49 49 49 50 58 68 70 74 79 80 84 90 93 94 94 94 92 93 96 97 96 96 95 94 93 91 87 82 81 79 77 75 72 71 73 74 74 74 75 75 76
81 82 75 68 66 63 57 54 55 61 65 63 60 59 56 56 59 59 59 60 52 48 55 55 63 77 68 55 57 57 55 53 45 39 37 37 40 43 45 45 45 47 48 45 46 47 47 50 53 57 63 66 70 74 74 76 83 91 92 91 92 92 93 95 94 93 94 92 90 89 87 84 80 77 74 71 71 72 72 73 74 75 75 76 76 76
71 77 79 77 73 65 58 56 58 63 67 65 62 59 56 56 55 55 59 60 59 66 63 49 56 73 66 56 60 59 55 50 43 38 35 33 36 40 43 45 45 44 47 48 48 47 48 52 55 54 55 59 64 69 71 71 74 85 92 89 90 93 94 94 93 91 90 89 88 86 84 83 81 79 76 73 75 78 76 76 77 77 77 78 77 77
65 69 74 77 72 63 61 63 62 62 65 67 67 62 58 55 51 52 53 56 68 76 62 45 49 64 63 53 55 56 48 40 38 38 37 33 31 35 40 44 45 43 45 48 50 50 49 52 55 53 52 53 57 61 66 68 67 74 85 87 88 91 89 88 90 90 89 88 86 84 84 85 84 83 83 83 85 86 83 82 84 83 83 82 80 80
68 70 68 71 68 60 60 63 62 59 60 65 67 65 65 60 56 59 58 62 78 74 51 40 45 61 65 50 43 45 39 34 35 35 36 35 30 30 36 44 46 44 47 49 50 51 50 51 53 53 52 51 52 55 60 64 63 66 75 81 83 86 83 83 88 89 88 88 86 85 87 88 88 88 89 90 90 90 88 88 89 89 88 85 82 80
70 69 62 63 65 64 63 63 64 63 61 64 66 68 73 69 66 71 68 67 73 59 39 36 44 60 63 44 32 35 34 34 34 31 33 34 32 29 31 42 48 46 48 50 48 51 52 54 56 54 52 50 51 55 58 61 63 64 69 71 71 76 79 84 89 88 87 88 88 88 89 90 90 91 91 91 91 91 91 91 91 90 87 83 78 75
66 66 60 55 57 63 66 65 68 69 65 66 65 69 73 69 72 76 64 58 60 47 32 35 50 62 56 37 26 26 28 31 31 32 32 30 32 31 29 39 48 47 50 52 49 52 55 57 57 53 53 54 55 56 58 60 64 65 66 65 65 70 78 85 89 89 89 90 90 91 91 91 92 92 92 92 92 92 92 91 89 86 82 76 72 69
57 58 55 50 48 54 59 60 63 68 69 63 56 62 66 61 68 73 63 61 61 49 42 50 64 65 53 39 27 23 26 30 31 32 34 31 31 32 31 36 43 46 53 56 54 56 56 55 54 54 56 58 58 58 60 63 64 64 65 64 65 70 79 86 89 90 91 91 91 91 91 92 92 92 93 92 92 91 89 88 85 80 75 71 67 64
57 53 52 50 46 46 50 49 53 66 73 63 50 57 63 56 60 67 63 63 70 71 69 70 67 54 43 39 35 31 31 32 34 35 37 35 31 32 32 31 38 45 51 55 57 58 57 56 57 58 59 61 62 62 62 63 64 65 65 64 64 67 75 85 90 90 91 91 90 90 91 92 92 92 91 89 87 86 84 81 77 72 68 65 60 56
64 60 58 56 49 46 46 46 53 64 71 69 61 59 58 53 58 69 68 65 77 89 82 74 70 58 48 45 44 44 37 33 38 39 38 36 32 31 31 30 38 45 49 54 58 60 60 61 63 63 64 65 64 61 59 60 62 62 63 63 64 65 70 80 88 88 89 90 90 91 91 90 90 89 87 83 81 79 76 73 68 64 61 57 53 50
74 71 64 58 54 52 46 47 55 59 63 72 74 67 63 62 65 75 81 78 86 92 82 74 75 70 65 59 52 50 43 37 40 41 40 39 34 32 30 31 39 46 51 58 60 60 60 61 62 62 65 65 61 57 55 56 59 60 60 60 62 63 64 74 84 85 87 89 90 89 88 86 84 82 80 76 74 71 68 64 60 57 54 50 47 43
82 82 74 64 61 61 58 58 63 62 63 73 78 74 74 78 79 83 87 87 90 94 89 84 80 74 71 65 58 55 49 43 43 41 42 40 34 32 30 30 36 42 49 55 58 58 57 58 59 60 64 63 59 56 53 55 60 61 59 58 60 62 63 69 78 81 82 84 85 83 80 77 74 71 69 67 64 61 57 54 51 49 46 44 41 38
86 89 85 76 68 70 73 70 68 69 72 77 79 80 84 88 91 94 93 91 95 98 94 93 91 84 75 66 63 62 55 50 49 42 39 39 35 32 30 29 31 35 39 45 52 56 57 59 60 61 66 65 62 61 58 61 64 61 58 57 60 63 64 67 75 80 80 78 77 74 70 67 64 61 60 57 54 51 48 46 45 43 42 40 37 32
88 91 90 87 82 81 81 74 68 70 77 81 80 81 87 90 94 98 95 92 96 98 95 95 93 82 71 64 65 65 57 51 50 44 38 36 35 33 30 29 29 30 32 38 48 53 58 62 62 62 66 67 69 72 70 67 64 61 58 56 60 65 65 64 69 74 76 71 67 65 63 61 59 56 54 50 47 45 44 44 43 41 40 37 32 26
83 87 89 92 91 87 81 77 76 78 83 88 88 87 90 93 96 99 95 92 95 96 91 91 89 77 66 61 60 62 59 51 47 45 39 35 34 34 31 29 29 30 33 37 42 46 53 63 65 65 70 71 74 78 76 71 67 64 60 58 63 67 66 65 65 65 64 62 59 58 57 57 54 51 48 45 43 43 43 43 41 40 37 33 27 21
76 82 86 88 87 84 82 84 86 88 89 93 94 94 95 96 97 98 96 95 97 92 84 85 90 81 67 58 56 60 59 50 47 47 41 35 32 32 32 29 29 33 36 38 38 38 47 59 64 67 72 74 74 74 72 69 68 65 60 60 66 69 68 68 66 63 59 56 54 53 53 51 48 45 43 42 42 41 41 40 39 37 34 28 23 18
72 75 80 84 85 86 87 88 89 89 91 93 92 93 95 94 92 93 94 96 94 88 83 89 93 83 70 60 55 59 59 52 49 47 42 37 34 34 35 32 32 37 38 38 39 41 45 54 60 65 69 71 71 70 69 69 69 66 64 66 69 70 66 64 62 59 56 54 52 50 48 46 43 42 41 41 41 40 39 38 36 34 29 23 18 15
70 69 74 82 86 89 90 89 87 86 87 87 87 88 90 90 91 94 94 95 93 84 80 89 89 77 72 67 56 56 58 54 51 48 42 39 39 39 38 35 36 38 36 36 42 44 42 46 56 65 70 68 64 62 63 67 67 65 65 67 67 65 62 59 57 54 52 51 49 46 43 41 40 41 41 40 40 38 37 36 34 30 24 19 16 14
65 66 69 74 78 82 83 78 75 74 75 78 80 81 82 83 87 91 91 93 92 79 72 78 76 68 70 68 58 55 55 51 50 47 41 38 38 38 39 38 38 37 33 35 41 42 39 40 50 62 65 60 55 53 57 63 63 61 62 64 64 62 58 56 54 51 49 47 44 42 41 40 40 40 40 39 38 37 36 34 31 26 20 17 15 12
57 57 58 63 67 67 65 60 57 55 57 65 71 74 77 78 79 84 89 89 84 76 70 67 64 64 68 63 56 56 55 48 46 46 42 40 38 36 36 38 39 38 37 38 40 40 38 38 44 51 52 49 47 50 56 60 60 60 61 62 61 57 54 52 50 46 44 42 40 40 40 40 39 38 37 36 35 34 33 30 27 23 19 17 14 11
54 50 48 52 56 56 54 53 51 49 48 50 55 61 67 72 75 79 82 75 70 72 70 60 56 61 64 58 53 56 57 52 50 49 45 43 41 40 39 38 39 39 39 39 39 39 39 39 42 46 47 47 49 52 55 58 57 57 59 60 57 53 50 48 46 43 40 39 38 37 36 36 35 34 34 33 32 32 29 27 25 21 18 16 14 11
53 51 47 46 47 47 50 50 48 47 45 42 43 47 52 60 67 70 68 63 63 65 59 51 53 56 57 55 52 54 57 56 54 52 48 43 41 42 41 39 39 39 38 38 39 38 39 40 41 44 47 50 51 53 54 55 54 53 54 54 51 48 47 46 43 40 37 35 33 32 32 33 33 33 33 32 31 29 27 25 23 20 18 16 14 11
46 49 46 46 46 43 44 46 45 44 42 39 39 39 40 46 52 56 57 57 59 56 47 45 49 50 50 52 52 52 53 52 50 50 50 46 41 39 40 40 41 42 42 41 40 40 41 42 43 46 49 52 52 53 54 52 51 52 52 50 47 45 45 43 39 35 31 30 30 30 31 33 33 33 33 31 30 27 25 23 20 18 17 15 13 11
35 39 37 38 41 36 33 37 40 40 38 34 32 32 32 35 40 45 48 51 53 52 46 45 46 43 42 47 50 50 50 50 48 46 46 46 43 38 38 40 42 45 47 47 47 46 46 47 49 50 51 52 51 51 50 50 51 51 50 48 45 42 41 37 33 30 29 29 30 31 32 32 33 32 31 29 27 24 22 21 19 18 18 16 14 13
28 31 28 28 34 32 26 28 30 30 31 28 25 27 29 30 32 36 38 40 43 44 45 46 46 42 41 43 45 46 46 48 48 45 44 46 45 43 40 40 40 42 46 49 50 50 49 48 48 48 47 47 47 47 47 49 50 50 48 45 41 38 35 33 30 29 29 30 31 31 31 31 31 30 28 26 25 23 21 19 20 21 20 18 17 15
26 29 27 26 32 29 20 21 23 22 24 24 22 24 25 24 24 26 28 30 32 35 39 41 41 40 41 43 44 44 45 45 43 41 39 40 42 44 44 43 42 41 41 44 45 44 44 43 44 45 45 45 45 45 47 48 49 49 47 44 40 36 34 32 31 30 28 29 30 31 30 30 29 28 26 26 25 22 21 21 22 22 21 20 19 18
27 29 28 26 30 28 20 18 20 21 23 22 19 19 19 18 19 20 21 23 25 29 31 31 33 35 37 38 40 43 44 42 39 36 34 33 34 37 39 40 41 41 40 41 41 41 42 42 43 44 44 44 44 44 45 46 46 47 46 43 41 38 34 32 31 29 28 29 31 30 29 29 28 27 27 26 25 23 23 23 24 23 22 22 21 20
29 28 27 25 28 29 24 18 18 23 24 18 16 18 15 14 15 16 17 18 19 23 26 25 25 28 29 29 30 32 34 34 34 33 32 32 31 31 33 35 37 39 39 40 40 40 41 42 42 43 43 42 42 42 42 42 43 43 42 41 39 37 33 31 30 30 29 30 30 29 29 29 30 29 28 27 26 25 25 25 25 25 24 23 23 22
30 29 27 27 27 26 23 20 20 22 21 15 16 19 16 14 14 14 15 15 15 18 21 21 20 21 23 23 22 24 26 27 28 28 28 28 28 27 28 29 30 33 34 35 36 37 37 38 39 40 41 41 41 42 41 40 39 38 37 36 35 33 31 30 30 30 30 30 29 29 31 32 31 30 29 28 27 26 26 26 27 27 26 25 24 23
30 30 28 27 25 23 24 26 23 21 21 18 16 16 15 15 15 13 11 13 14 13 15 18 18 18 18 18 18 20 22 23 25 25 24 24 24 22 21 21 22 24 25 26 28 29 30 31 32 33 35 34 35 37 38 38 37 35 34 34 33 31 29 28 27 27 28 28 29 30 32 33 31 30 30 29 28 28 28 29 30 29 28 26 25 26
30 31 28 26 27 26 26 29 27 25 26 23 17 16 16 15 16 15 12 13 15 12 11 13 14 14 16 18 18 16 16 18 22 22 19 18 18 17 17 18 18 18 19 20 22 23 24 25 26 27 27 27 28 29 32 34 34 33 32 31 30 29 27 24 23 23 24 25 26 28 31 32 31 31 31 31 30 31 31 32 32 30 29 29 29 29
31 30 28 29 32 31 28 30 29 25 24 22 18 18 18 15 16 17 15 16 16 12 11 13 12 13 16 18 17 15 15 17 19 18 14 14 15 15 15 16 16 17 17 18 18 19 20 21 22 23 23 24 23 24 26 28 28 28 27 26 26 25 23 21 20 19 19 21 24 27 30 31 30 31 31 31 31 33 34 34 34 33 32 32 32 33
37 35 33 33 31 30 29 31 29 23 21 21 19 19 18 17 17 16 17 18 15 12 13 14 14 15 16 16 16 17 17 17 16 13 10 9 11 12 13 14 14 15 15 16 17 17 18 19 19 20 20 20 20 21 23 24 25 24 24 24 24 23 22 22 22 21 20 21 23 25 27 27 28 29 30 31 33 36 37 37 36 35 35 35 35 36
41 40 39 35 33 32 33 33 30 24 21 22 21 20 19 18 18 19 21 20 15 13 14 15 16 17 17 16 16 16 15 14 12 11 9 9 10 9 9 10 11 12 13 14 15 17 18 19 19 19 19 19 20 21 22 23 23 23 24 24 23 23 23 24 25 24 22 21 21 22 24 25 26 28 30 33 36 38 38 38 37 38 38 38 37 39
41 41 40 38 37 36 36 37 35 28 23 23 24 21 20 20 22 23 21 18 16 16 16 15 16 17 16 15 15 14 14 14 12 11 11 10 10 10 10 9 9 10 11 13 15 16 17 18 19 20 20 20 20 21 21 22 23 24 24 25 24 24 25 26 26 25 22 21 21 21 23 25 26 28 31 34 37 39 39 39 39 40 40 40 40 42
42 41 42 43 40 37 38 40 40 33 27 24 23 22 22 23 24 22 19 18 18 18 17 17 17 16 16 15 14 13 14 14 12 12 11 10 10 11 11 11 11 11 10 11 12 14 15 17 18 19 20 21 22 22 23 23 24 24 25 25 25 26 27 27 27 26 24 22 21 21 23 25 26 29 31 34 37 39 40 40 40 40 41 42 44 48
45 44 46 45 41 40 42 40 37 34 31 27 25 26 27 26 23 22 22 22 21 20 20 19 18 17 17 17 16 15 15 14 13 13 12 12 11 11 11 12 12 12 13 12 12 12 13 15 16 17 19 21 22 24 24 25 25 26 26 26 27 28 29 29 29 28 26 25 24 24 24 26 27 29 30 33 36 38 39 39 40 42 44 47 50 53
51 49 49 48 44 43 43 40 36 35 35 33 31 31 30 28 26 26 26 25 25 25 25 23 21 21 21 21 20 19 18 17 17 16 15 14 14 13 13 13 12 13 13 13 14 14 14 14 14 16 19 22 23 25 26 26 27 27 27 28 29 29 29 30 30 30 29 28 27 26 26 26 28 29 30 32 35 38 40 42 44 47 51 53 55 58
57 53 52 53 53 49 45 43 41 40 39 38 37 35 32 31 30 29 28 28 28 29 29 28 27 27 27 27 26 25 24 23 22 21 20 19 18 17 17 16 15 15 15 15 15 15 15 16 16 17 19 20 22 25 26 28 28 28 28 28 29 30 31 31 31 32 32 32 30 29 29 29 30 32 34 36 39 42 44 47 50 53 55 56 57 59
62 59 55 55 56 53 51 50 49 47 46 44 41 38 36 35 34 33 33 33 33 33 33 32 32 32 32 32 31 31 30 29 28 28 27 27 25 24 23 22 21 20 19 18 18 18 18 18 19 19 20 20 22 23 26 28 29 30 31 32 34 35 35 35 36 36 37 37 37 36 35 36 37 39 40 41 43 46 47 49 52 54 55 56 58 60
62 61 59 58 56 54 54 56 57 59 59 56 51 46 44 43 41 40 38 38 38 38 38 37 36 35 35 35 34 34 34 34 34 34 34 33 33 32 31 30 29 27 26 25 24 24 24 24 24 24 24 25 26 26 28 29 30 32 35 38 40 41 41 41 41 42 42 43 44 44 45 46 47 47 48 48 49 50 52 53 54 55 56 59 62 66
60 61 63 63 61 59 58 60 63 66 66 63 60 56 53 50 48 46 45 44 44 44 43 42 41 40 38 38 38 38 38 39 40 39 38 37 38 37 36 35 33 32 31 31 29 29 29 29 29 29 29 29 30 30 31 31 32 33 36 38 41 43 44 44 45 46 47 48 50 53 55 56 56 56 55 55 55 54 54 54 55 56 59 62 66 70
59 62 65 65 64 63 63 64 65 66 65 64 63 61 59 58 56 54 52 50 48 47 46 45 44 43 43 43 43 42 42 43 44 44 43 42 43 43 42 42 41 40 39 37 36 35 34 33 33 33 33 34 34 33 33 33 33 35 37 39 41 44 45 47 48 49 52 54 57 60 61 61 61 62 61 60 59 57 56 55 56 59 61 63 66 69
60 62 64 63 63 64 64 64 63 62 61 61 60 60 61 61 59 58 56 54 52 51 49 49 48 47 47 47 46 46 45 46 47 47 47 48 48 49 49 48 48 48 47 46 44 43 42 42 41 40 39 39 38 37 36 35 36 38 40 41 43 45 47 49 50 52 56 60 63 64 65 66 67 67 66 64 62 61 58 57 58 61 62 63 66 69